Time,TemperatureF,DewpointF,PressureIn,WindDirection,WindDirectionDegrees,WindSpeedMPH,WindSpeedGustMPH,Humidity,HourlyPrecipIn,Conditions,Clouds,dailyrainin,SoftwareType,DateUTC
2013-04-30 00:01:00,26.2,23.0,25.62,NNW,337,6.8,7.5,84,0.00,,,0.00,Rainwise IP-100,2013-04-30 07:01:00,
2013-04-30 00:06:00,26.2,23.0,25.62,NNE,22,4.9,8.6,84,0.00,,,0.00,Rainwise IP-100,2013-04-30 07:06:00,
2013-04-30 00:11:00,26.1,23.0,25.62,NNW,337,3.7,9.1,83,0.00,,,0.00,Rainwise IP-100,2013-04-30 07:11:00,
2013-04-30 00:16:00,26.1,23.0,25.62,NNW,337,6.1,7.9,83,0.00,,,0.00,Rainwise IP-100,2013-04-30 07:16:00,
2013-04-30 00:21:00,26.0,23.0,25.63,NNW,337,5.6,8.4,84,0.00,,,0.00,Rainwise IP-100,2013-04-30 07:21:00,
2013-04-30 00:26:00,25.9,23.0,25.62,NNW,337,0.0,7.9,84,0.00,,,0.00,Rainwise IP-100,2013-04-30 07:26:00,
2013-04-30 00:31:00,25.9,23.0,25.63,NNW,337,4.9,9.3,84,0.00,,,0.00,Rainwise IP-100,2013-04-30 07:31:00,
2013-04-30 00:36:00,25.8,23.0,25.62,NNW,337,4.2,8.4,84,0.00,,,0.00,Rainwise IP-100,2013-04-30 07:36:00,
2013-04-30 00:41:00,25.7,23.0,25.63,NNW,337,6.3,7.7,84,0.00,,,0.00,Rainwise IP-100,2013-04-30 07:41:00,
2013-04-30 00:46:00,25.6,23.0,25.63,NNW,337,6.1,7.2,84,0.00,,,0.00,Rainwise IP-100,2013-04-30 07:46:00,
2013-04-30 00:51:00,25.6,23.0,25.63,NNW,337,3.7,8.4,85,0.00,,,0.00,Rainwise IP-100,2013-04-30 07:51:00,
2013-04-30 00:56:00,25.5,23.0,25.63,NNW,337,3.7,6.3,85,0.00,,,0.00,Rainwise IP-100,2013-04-30 07:56:00,
2013-04-30 01:01:00,25.4,23.0,25.63,North,360,2.1,7.7,85,0.00,,,0.00,Rainwise IP-100,2013-04-30 08:01:00,
2013-04-30 01:06:00,25.4,23.0,25.63,NNW,337,5.1,7.0,85,0.00,,,0.00,Rainwise IP-100,2013-04-30 08:06:00,
2013-04-30 01:11:00,25.3,23.0,25.63,NNW,337,3.0,7.0,86,0.00,,,0.00,Rainwise IP-100,2013-04-30 08:11:00,
2013-04-30 01:16:00,25.2,23.0,25.63,NNE,22,3.5,6.1,86,0.00,,,0.00,Rainwise IP-100,2013-04-30 08:16:00,
2013-04-30 01:21:00,25.1,23.0,25.63,NNW,337,2.6,5.4,86,0.00,,,0.00,Rainwise IP-100,2013-04-30 08:21:00,
2013-04-30 01:26:00,25.1,23.0,25.63,NNE,22,1.9,5.8,86,0.00,,,0.00,Rainwise IP-100,2013-04-30 08:26:00,
2013-04-30 01:31:00,25.0,23.0,25.63,NNW,337,5.4,6.8,86,0.00,,,0.00,Rainwise IP-100,2013-04-30 08:31:00,
2013-04-30 01:36:00,25.1,23.0,25.63,NNW,337,1.9,5.8,86,0.00,,,0.00,Rainwise IP-100,2013-04-30 08:36:00,
2013-04-30 01:41:00,25.1,23.0,25.63,North,360,4.2,7.0,85,0.00,,,0.00,Rainwise IP-100,2013-04-30 08:41:00,
2013-04-30 01:46:00,25.0,23.0,25.63,NNW,337,3.5,6.3,85,0.00,,,0.00,Rainwise IP-100,2013-04-30 08:46:00,
2013-04-30 01:51:00,25.0,23.0,25.63,NNW,337,4.9,6.8,85,0.00,,,0.00,Rainwise IP-100,2013-04-30 08:51:00,
2013-04-30 01:56:00,25.0,23.0,25.63,NNW,337,2.8,7.0,85,0.00,,,0.00,Rainwise IP-100,2013-04-30 08:56:00,
2013-04-30 02:01:00,25.0,23.0,25.63,North,360,3.0,6.5,85,0.00,,,0.00,Rainwise IP-100,2013-04-30 09:01:00,
2013-04-30 02:06:00,25.0,23.0,25.63,North,360,2.6,4.4,85,0.00,,,0.00,Rainwise IP-100,2013-04-30 09:06:00,
2013-04-30 02:11:00,24.9,23.0,25.63,North,360,1.6,3.5,85,0.00,,,0.00,Rainwise IP-100,2013-04-30 09:11:00,
2013-04-30 02:16:00,24.8,23.0,25.63,NNW,337,1.6,4.0,85,0.00,,,0.00,Rainwise IP-100,2013-04-30 09:16:00,
2013-04-30 02:21:00,24.7,23.0,25.63,NNW,337,0.0,1.6,85,0.00,,,0.00,Rainwise IP-100,2013-04-30 09:21:00,
2013-04-30 02:26:00,24.7,23.0,25.63,NNW,337,1.2,2.8,85,0.00,,,0.00,Rainwise IP-100,2013-04-30 09:26:00,
2013-04-30 02:31:00,24.7,23.0,25.63,NNW,337,0.0,3.7,85,0.00,,,0.00,Rainwise IP-100,2013-04-30 09:31:00,
2013-04-30 02:36:00,24.7,23.0,25.63,NNW,337,1.6,3.5,85,0.00,,,0.00,Rainwise IP-100,2013-04-30 09:36:00,
2013-04-30 02:41:00,24.7,23.0,25.64,NNE,22,1.9,3.3,84,0.00,,,0.00,Rainwise IP-100,2013-04-30 09:41:00,
2013-04-30 02:46:00,24.8,23.0,25.64,NNW,337,4.0,4.0,84,0.00,,,0.00,Rainwise IP-100,2013-04-30 09:46:00,
2013-04-30 02:51:00,24.9,23.0,25.64,NNW,337,0.0,4.7,83,0.00,,,0.00,Rainwise IP-100,2013-04-30 09:51:00,
2013-04-30 02:56:00,25.0,21.0,25.64,NNW,337,1.9,5.4,82,0.00,,,0.00,Rainwise IP-100,2013-04-30 09:56:00,
2013-04-30 03:01:00,25.2,21.0,25.64,NNW,337,1.4,3.7,82,0.00,,,0.00,Rainwise IP-100,2013-04-30 10:01:00,
2013-04-30 03:06:00,25.2,21.0,25.64,NNW,337,2.8,4.4,81,0.00,,,0.00,Rainwise IP-100,2013-04-30 10:06:00,
2013-04-30 03:11:00,25.4,21.0,25.64,NNW,337,3.0,3.3,81,0.00,,,0.00,Rainwise IP-100,2013-04-30 10:11:00,
2013-04-30 03:16:00,25.5,21.0,25.64,NNW,337,0.0,4.0,81,0.00,,,0.00,Rainwise IP-100,2013-04-30 10:16:00,
2013-04-30 03:21:00,25.5,21.0,25.64,NNW,337,1.6,4.7,81,0.00,,,0.00,Rainwise IP-100,2013-04-30 10:21:00,
2013-04-30 03:26:00,25.6,21.0,25.65,NNE,22,3.5,5.4,81,0.00,,,0.00,Rainwise IP-100,2013-04-30 10:26:00,
2013-04-30 03:31:00,25.5,21.0,25.64,NNE,22,0.0,4.9,81,0.00,,,0.00,Rainwise IP-100,2013-04-30 10:31:00,
2013-04-30 03:36:00,25.5,21.0,25.65,NNW,337,1.4,4.0,80,0.00,,,0.00,Rainwise IP-100,2013-04-30 10:36:00,
2013-04-30 03:41:00,25.4,21.0,25.64,ESE,112,6.1,6.1,80,0.00,,,0.00,Rainwise IP-100,2013-04-30 10:41:00,
2013-04-30 03:46:00,25.5,21.0,25.65,North,360,0.0,6.5,79,0.00,,,0.00,Rainwise IP-100,2013-04-30 10:46:00,
2013-04-30 03:51:00,25.6,21.0,25.65,SE,135,1.6,3.3,78,0.00,,,0.00,Rainwise IP-100,2013-04-30 10:51:00,
2013-04-30 03:56:00,25.6,21.0,25.64,NNE,22,1.4,7.7,78,0.00,,,0.00,Rainwise IP-100,2013-04-30 10:56:00,
2013-04-30 04:01:00,25.7,21.0,25.65,NNW,337,4.0,7.9,76,0.00,,,0.00,Rainwise IP-100,2013-04-30 11:01:00,
2013-04-30 04:06:00,25.8,21.0,25.65,NNW,337,2.1,8.6,76,0.00,,,0.00,Rainwise IP-100,2013-04-30 11:06:00,
2013-04-30 04:11:00,25.8,21.0,25.66,North,360,7.0,11.4,77,0.00,,,0.00,Rainwise IP-100,2013-04-30 11:11:00,
2013-04-30 04:16:00,25.8,21.0,25.66,NNW,337,1.6,8.4,77,0.00,,,0.00,Rainwise IP-100,2013-04-30 11:16:00,
2013-04-30 04:21:00,25.8,21.0,25.66,NNE,22,4.7,7.7,76,0.00,,,0.00,Rainwise IP-100,2013-04-30 11:21:00,
2013-04-30 04:26:00,25.9,21.0,25.65,NNE,22,4.9,7.9,75,0.00,,,0.00,Rainwise IP-100,2013-04-30 11:26:00,
2013-04-30 04:31:00,26.0,18.0,25.66,NNE,22,1.4,8.4,74,0.00,,,0.00,Rainwise IP-100,2013-04-30 11:31:00,
2013-04-30 04:36:00,26.1,18.0,25.66,NNE,22,1.4,8.6,73,0.00,,,0.00,Rainwise IP-100,2013-04-30 11:36:00,
2013-04-30 04:41:00,26.1,18.0,25.65,WNW,292,2.6,6.3,72,0.00,,,0.00,Rainwise IP-100,2013-04-30 11:41:00,
2013-04-30 04:46:00,26.1,18.0,25.65,SE,135,1.6,7.0,71,0.00,,,0.00,Rainwise IP-100,2013-04-30 11:46:00,
2013-04-30 04:51:00,26.0,18.0,25.65,NNE,22,1.2,4.4,70,0.00,,,0.00,Rainwise IP-100,2013-04-30 11:51:00,
2013-04-30 04:56:00,25.9,18.0,25.65,NNW,337,4.2,6.8,71,0.00,,,0.00,Rainwise IP-100,2013-04-30 11:56:00,
2013-04-30 05:01:00,25.8,18.0,25.65,NNW,337,1.9,5.1,71,0.00,,,0.00,Rainwise IP-100,2013-04-30 12:01:00,
2013-04-30 05:06:00,25.7,18.0,25.66,NNW,337,3.3,6.3,71,0.00,,,0.00,Rainwise IP-100,2013-04-30 12:06:00,
2013-04-30 05:11:00,25.6,18.0,25.65,WNW,292,0.0,4.9,72,0.00,,,0.00,Rainwise IP-100,2013-04-30 12:11:00,
2013-04-30 05:16:00,25.6,18.0,25.65,NE,45,1.4,3.3,72,0.00,,,0.00,Rainwise IP-100,2013-04-30 12:16:00,
2013-04-30 05:21:00,25.5,18.0,25.65,NNW,337,0.0,3.7,73,0.00,,,0.00,Rainwise IP-100,2013-04-30 12:21:00,
2013-04-30 05:26:00,25.3,18.0,25.65,NNW,337,1.2,4.9,73,0.00,,,0.00,Rainwise IP-100,2013-04-30 12:26:00,
2013-04-30 05:31:00,25.2,18.0,25.65,NNE,22,3.0,4.9,74,0.00,,,0.00,Rainwise IP-100,2013-04-30 12:31:00,
2013-04-30 05:36:00,25.1,18.0,25.65,NNW,337,4.9,5.8,74,0.00,,,0.00,Rainwise IP-100,2013-04-30 12:36:00,
2013-04-30 05:41:00,25.0,21.0,25.66,NNE,22,4.4,6.8,75,0.00,,,0.00,Rainwise IP-100,2013-04-30 12:41:00,
2013-04-30 05:46:00,25.0,21.0,25.66,NNW,337,4.4,7.0,77,0.00,,,0.00,Rainwise IP-100,2013-04-30 12:46:00,
2013-04-30 05:51:00,24.9,21.0,25.66,NNW,337,1.6,6.1,79,0.00,,,0.00,Rainwise IP-100,2013-04-30 12:51:00,
2013-04-30 05:56:00,24.8,21.0,25.66,North,360,0.0,3.7,80,0.00,,,0.00,Rainwise IP-100,2013-04-30 12:56:00,
2013-04-30 06:01:00,24.7,21.0,25.66,NNW,337,2.6,5.4,81,0.00,,,0.00,Rainwise IP-100,2013-04-30 13:01:00,
2013-04-30 06:06:00,24.5,21.0,25.66,NNW,337,2.1,2.8,82,0.00,,,0.00,Rainwise IP-100,2013-04-30 13:06:00,
2013-04-30 06:11:00,24.3,21.0,25.66,NNW,337,2.6,4.9,82,0.00,,,0.00,Rainwise IP-100,2013-04-30 13:11:00,
2013-04-30 06:16:00,24.2,21.0,25.66,NNW,337,1.4,3.3,82,0.00,,,0.00,Rainwise IP-100,2013-04-30 13:16:00,
2013-04-30 06:21:00,24.1,21.0,25.66,NW,315,4.2,5.4,83,0.00,,,0.00,Rainwise IP-100,2013-04-30 13:21:00,
2013-04-30 06:26:00,24.0,21.0,25.66,North,360,3.7,5.6,83,0.00,,,0.00,Rainwise IP-100,2013-04-30 13:26:00,
2013-04-30 06:31:00,24.0,21.0,25.66,NNW,337,3.3,6.5,83,0.00,,,0.00,Rainwise IP-100,2013-04-30 13:31:00,
2013-04-30 06:36:00,24.1,21.0,25.67,NNW,337,2.3,4.9,84,0.00,,,0.00,Rainwise IP-100,2013-04-30 13:36:00,
2013-04-30 06:41:00,24.1,21.0,25.66,NNW,337,2.6,5.8,85,0.00,,,0.00,Rainwise IP-100,2013-04-30 13:41:00,
2013-04-30 06:46:00,24.1,21.0,25.67,NNW,337,3.5,4.9,87,0.00,,,0.00,Rainwise IP-100,2013-04-30 13:46:00,
2013-04-30 06:51:00,24.1,21.0,25.67,NNW,337,3.7,4.9,88,0.00,,,0.00,Rainwise IP-100,2013-04-30 13:51:00,
2013-04-30 06:56:00,24.0,21.0,25.67,North,360,3.0,4.9,88,0.00,,,0.00,Rainwise IP-100,2013-04-30 13:56:00,
2013-04-30 07:01:00,24.0,21.0,25.68,NNW,337,2.6,7.0,87,0.00,,,0.00,Rainwise IP-100,2013-04-30 14:01:00,
2013-04-30 07:06:00,24.0,21.0,25.68,NNE,22,3.0,5.8,86,0.00,,,0.00,Rainwise IP-100,2013-04-30 14:06:00,
2013-04-30 07:11:00,24.0,21.0,25.68,North,360,2.8,4.4,85,0.00,,,0.00,Rainwise IP-100,2013-04-30 14:11:00,
2013-04-30 07:16:00,24.1,21.0,25.68,North,360,0.0,4.9,86,0.00,,,0.00,Rainwise IP-100,2013-04-30 14:16:00,
2013-04-30 07:21:00,24.2,21.0,25.68,NNE,22,4.2,5.6,86,0.00,,,0.00,Rainwise IP-100,2013-04-30 14:21:00,
2013-04-30 07:26:00,24.4,21.0,25.68,NNW,337,5.1,7.2,87,0.00,,,0.00,Rainwise IP-100,2013-04-30 14:26:00,
2013-04-30 07:31:00,24.4,21.0,25.68,North,360,0.0,7.2,88,0.00,,,0.00,Rainwise IP-100,2013-04-30 14:31:00,
2013-04-30 07:36:00,24.4,21.0,25.69,NNW,337,2.6,5.6,88,0.00,,,0.00,Rainwise IP-100,2013-04-30 14:36:00,
2013-04-30 07:41:00,24.5,23.0,25.69,NNE,22,2.3,4.7,89,0.00,,,0.00,Rainwise IP-100,2013-04-30 14:41:00,
2013-04-30 07:46:00,24.5,23.0,25.69,NNW,337,2.3,5.8,88,0.00,,,0.00,Rainwise IP-100,2013-04-30 14:46:00,
2013-04-30 07:51:00,24.5,23.0,25.69,NNW,337,1.6,4.4,87,0.00,,,0.00,Rainwise IP-100,2013-04-30 14:51:00,
2013-04-30 07:56:00,24.5,23.0,25.69,NNW,337,3.5,5.4,87,0.00,,,0.00,Rainwise IP-100,2013-04-30 14:56:00,
2013-04-30 08:01:00,24.6,23.0,25.69,North,360,4.0,5.8,87,0.00,,,0.00,Rainwise IP-100,2013-04-30 15:01:00,
2013-04-30 08:06:00,24.7,23.0,25.69,NNW,337,3.0,6.3,86,0.00,,,0.00,Rainwise IP-100,2013-04-30 15:06:00,
2013-04-30 08:11:00,24.8,23.0,25.69,NNE,22,2.8,4.7,85,0.00,,,0.00,Rainwise IP-100,2013-04-30 15:11:00,
2013-04-30 08:16:00,24.9,23.0,25.70,North,360,2.8,6.3,83,0.00,,,0.00,Rainwise IP-100,2013-04-30 15:16:00,
2013-04-30 08:21:00,25.1,21.0,25.69,NNW,337,4.2,4.7,81,0.00,,,0.00,Rainwise IP-100,2013-04-30 15:21:00,
2013-04-30 08:26:00,25.4,21.0,25.70,North,360,4.2,8.2,81,0.00,,,0.00,Rainwise IP-100,2013-04-30 15:26:00,
2013-04-30 08:31:00,25.6,21.0,25.70,NNW,337,3.7,6.3,80,0.00,,,0.00,Rainwise IP-100,2013-04-30 15:31:00,
2013-04-30 08:36:00,25.9,21.0,25.70,NNW,337,1.6,6.8,79,0.00,,,0.00,Rainwise IP-100,2013-04-30 15:36:00,
2013-04-30 08:41:00,26.1,21.0,25.70,NNE,22,2.3,5.1,80,0.00,,,0.00,Rainwise IP-100,2013-04-30 15:41:00,
2013-04-30 08:46:00,26.2,21.0,25.71,NNW,337,3.0,8.2,79,0.00,,,0.00,Rainwise IP-100,2013-04-30 15:46:00,
2013-04-30 08:51:00,26.4,21.0,25.71,NNW,337,5.6,7.5,78,0.00,,,0.00,Rainwise IP-100,2013-04-30 15:51:00,
2013-04-30 08:56:00,26.5,23.0,25.71,NNW,337,7.9,8.9,78,0.00,,,0.00,Rainwise IP-100,2013-04-30 15:56:00,
2013-04-30 09:01:00,26.6,23.0,25.71,NNW,337,4.4,8.6,78,0.00,,,0.00,Rainwise IP-100,2013-04-30 16:01:00,
2013-04-30 09:06:00,26.8,23.0,25.71,NNE,22,4.7,7.0,78,0.00,,,0.00,Rainwise IP-100,2013-04-30 16:06:00,
2013-04-30 09:11:00,27.1,23.0,25.71,NNW,337,5.6,9.1,78,0.00,,,0.00,Rainwise IP-100,2013-04-30 16:11:00,
2013-04-30 09:16:00,27.4,23.0,25.72,NNW,337,6.5,9.1,78,0.00,,,0.00,Rainwise IP-100,2013-04-30 16:16:00,
2013-04-30 09:21:00,27.6,23.0,25.71,North,360,5.4,10.7,77,0.00,,,0.00,Rainwise IP-100,2013-04-30 16:21:00,
2013-04-30 09:26:00,27.6,21.0,25.72,NNW,337,6.1,7.7,76,0.00,,,0.00,Rainwise IP-100,2013-04-30 16:26:00,
2013-04-30 09:31:00,27.8,21.0,25.72,NNW,337,6.1,8.4,76,0.00,,,0.00,Rainwise IP-100,2013-04-30 16:31:00,
2013-04-30 09:36:00,28.4,21.0,25.72,NNW,337,5.1,8.9,75,0.00,,,0.00,Rainwise IP-100,2013-04-30 16:36:00,
2013-04-30 09:41:00,29.0,23.0,25.73,NNE,22,3.0,10.0,73,0.00,,,0.00,Rainwise IP-100,2013-04-30 16:41:00,
2013-04-30 09:46:00,29.4,21.0,25.73,NNW,337,6.8,10.3,71,0.00,,,0.00,Rainwise IP-100,2013-04-30 16:46:00,
2013-04-30 09:51:00,29.5,23.0,25.73,NNW,337,10.7,10.7,71,0.00,,,0.00,Rainwise IP-100,2013-04-30 16:51:00,
2013-04-30 09:56:00,29.5,23.0,25.73,NW,315,9.8,11.7,71,0.00,,,0.00,Rainwise IP-100,2013-04-30 16:56:00,
2013-04-30 10:01:00,29.5,23.0,25.73,North,360,3.5,11.4,72,0.00,,,0.00,Rainwise IP-100,2013-04-30 17:01:00,
2013-04-30 10:06:00,29.3,23.0,25.74,NNW,337,9.1,9.1,73,0.00,,,0.00,Rainwise IP-100,2013-04-30 17:06:00,
2013-04-30 10:11:00,29.1,23.0,25.73,NNW,337,10.3,12.1,73,0.00,,,0.00,Rainwise IP-100,2013-04-30 17:11:00,
2013-04-30 10:16:00,29.1,23.0,25.74,NNE,22,3.7,12.4,74,0.00,,,0.00,Rainwise IP-100,2013-04-30 17:16:00,
2013-04-30 10:21:00,29.1,23.0,25.74,NNW,337,6.1,11.9,75,0.00,,,0.00,Rainwise IP-100,2013-04-30 17:21:00,
2013-04-30 10:26:00,28.9,23.0,25.74,North,360,6.8,11.2,76,0.00,,,0.00,Rainwise IP-100,2013-04-30 17:26:00,
2013-04-30 10:31:00,29.2,23.0,25.74,NNW,337,8.2,9.6,77,0.00,,,0.00,Rainwise IP-100,2013-04-30 17:31:00,
2013-04-30 10:36:00,29.7,24.0,25.74,NNW,337,9.8,10.3,75,0.00,,,0.00,Rainwise IP-100,2013-04-30 17:36:00,
2013-04-30 10:41:00,29.8,24.0,25.75,NNE,22,3.7,11.4,74,0.00,,,0.00,Rainwise IP-100,2013-04-30 17:41:00,
2013-04-30 10:46:00,29.6,24.0,25.75,NNE,22,6.5,10.0,74,0.00,,,0.00,Rainwise IP-100,2013-04-30 17:46:00,
2013-04-30 10:51:00,29.4,23.0,25.75,NNW,337,4.0,8.4,73,0.00,,,0.00,Rainwise IP-100,2013-04-30 17:51:00,
2013-04-30 10:56:00,29.4,23.0,25.75,NNW,337,6.8,7.7,73,0.00,,,0.00,Rainwise IP-100,2013-04-30 17:56:00,
2013-04-30 11:01:00,29.7,23.0,25.75,North,360,5.1,9.6,72,0.00,,,0.00,Rainwise IP-100,2013-04-30 18:01:00,
2013-04-30 11:06:00,30.0,23.0,25.75,NNE,22,5.8,11.0,70,0.00,,,0.00,Rainwise IP-100,2013-04-30 18:06:00,
2013-04-30 11:11:00,30.1,23.0,25.75,NNW,337,5.1,13.3,70,0.00,,,0.00,Rainwise IP-100,2013-04-30 18:11:00,
2013-04-30 11:16:00,29.9,23.0,25.75,NNW,337,7.2,11.4,72,0.00,,,0.00,Rainwise IP-100,2013-04-30 18:16:00,
2013-04-30 11:21:00,29.6,23.0,25.75,NNE,22,0.0,9.1,73,0.00,,,0.00,Rainwise IP-100,2013-04-30 18:21:00,
2013-04-30 11:26:00,29.6,23.0,25.75,North,360,3.3,5.8,73,0.00,,,0.00,Rainwise IP-100,2013-04-30 18:26:00,
2013-04-30 11:31:00,30.3,23.0,25.76,NNW,337,8.2,8.2,71,0.00,,,0.00,Rainwise IP-100,2013-04-30 18:31:00,
2013-04-30 11:36:00,31.1,23.0,25.76,NNE,22,6.1,10.7,68,0.00,,,0.00,Rainwise IP-100,2013-04-30 18:36:00,
2013-04-30 11:41:00,31.3,21.0,25.77,NNW,337,11.2,14.0,67,0.00,,,0.00,Rainwise IP-100,2013-04-30 18:41:00,
2013-04-30 11:46:00,31.2,23.0,25.77,NNW,337,5.6,15.9,71,0.00,,,0.00,Rainwise IP-100,2013-04-30 18:46:00,
2013-04-30 11:51:00,30.4,24.0,25.77,WNW,292,4.9,12.6,76,0.00,,,0.00,Rainwise IP-100,2013-04-30 18:51:00,
2013-04-30 11:56:00,29.5,26.0,25.77,North,360,5.4,12.1,80,0.00,,,0.00,Rainwise IP-100,2013-04-30 18:56:00,
2013-04-30 12:01:00,29.2,24.0,25.77,NNW,337,4.7,8.2,83,0.00,,,0.00,Rainwise IP-100,2013-04-30 19:01:00,
2013-04-30 12:06:00,29.6,26.0,25.77,NNW,337,8.9,9.1,83,0.00,,,0.00,Rainwise IP-100,2013-04-30 19:06:00,
2013-04-30 12:11:00,30.4,26.0,25.77,NNW,337,5.6,10.7,80,0.00,,,0.00,Rainwise IP-100,2013-04-30 19:11:00,
2013-04-30 12:16:00,30.9,24.0,25.77,NNW,337,9.1,11.4,76,0.00,,,0.00,Rainwise IP-100,2013-04-30 19:16:00,
2013-04-30 12:21:00,31.2,24.0,25.77,NNW,337,8.9,13.1,74,0.00,,,0.00,Rainwise IP-100,2013-04-30 19:21:00,
2013-04-30 12:26:00,31.4,23.0,25.77,NNW,337,5.4,12.4,72,0.00,,,0.00,Rainwise IP-100,2013-04-30 19:26:00,
2013-04-30 12:31:00,31.5,24.0,25.78,NNW,337,7.5,11.2,70,0.00,,,0.00,Rainwise IP-100,2013-04-30 19:31:00,
2013-04-30 12:36:00,31.4,23.0,25.78,NNW,337,7.9,15.6,69,0.00,,,0.00,Rainwise IP-100,2013-04-30 19:36:00,
2013-04-30 12:41:00,31.2,23.0,25.78,North,360,4.9,13.1,70,0.00,,,0.00,Rainwise IP-100,2013-04-30 19:41:00,
2013-04-30 12:46:00,31.0,23.0,25.78,NNW,337,7.7,12.4,70,0.00,,,0.00,Rainwise IP-100,2013-04-30 19:46:00,
2013-04-30 12:51:00,31.2,23.0,25.78,North,360,5.6,11.7,69,0.00,,,0.00,Rainwise IP-100,2013-04-30 19:51:00,
2013-04-30 12:56:00,31.5,23.0,25.78,NNW,337,12.4,12.4,68,0.00,,,0.00,Rainwise IP-100,2013-04-30 19:56:00,
2013-04-30 13:01:00,31.8,23.0,25.78,North,360,6.8,15.2,68,0.00,,,0.00,Rainwise IP-100,2013-04-30 20:01:00,
2013-04-30 13:06:00,31.7,24.0,25.79,NNW,337,8.9,14.5,70,0.00,,,0.00,Rainwise IP-100,2013-04-30 20:06:00,
2013-04-30 13:11:00,31.3,23.0,25.79,NNW,337,6.1,16.8,72,0.00,,,0.00,Rainwise IP-100,2013-04-30 20:11:00,
2013-04-30 13:16:00,31.0,23.0,25.79,NNW,337,5.4,14.5,72,0.00,,,0.00,Rainwise IP-100,2013-04-30 20:16:00,
2013-04-30 13:21:00,31.1,23.0,25.79,NNW,337,9.3,12.6,71,0.00,,,0.00,Rainwise IP-100,2013-04-30 20:21:00,
2013-04-30 13:26:00,31.5,23.0,25.79,North,360,9.1,11.4,69,0.00,,,0.00,Rainwise IP-100,2013-04-30 20:26:00,
2013-04-30 13:31:00,32.1,23.0,25.80,NNE,22,7.5,15.9,66,0.00,,,0.00,Rainwise IP-100,2013-04-30 20:31:00,
2013-04-30 13:36:00,32.5,23.0,25.80,NW,315,10.5,14.7,65,0.00,,,0.00,Rainwise IP-100,2013-04-30 20:36:00,
2013-04-30 13:41:00,32.7,24.0,25.80,North,360,5.6,11.7,66,0.00,,,0.00,Rainwise IP-100,2013-04-30 20:41:00,
2013-04-30 13:46:00,33.0,23.0,25.80,NNE,22,7.5,15.4,65,0.00,,,0.00,Rainwise IP-100,2013-04-30 20:46:00,
2013-04-30 13:51:00,33.0,24.0,25.80,North,360,5.8,16.8,66,0.00,,,0.00,Rainwise IP-100,2013-04-30 20:51:00,
2013-04-30 13:56:00,32.6,24.0,25.81,NNW,337,8.6,11.7,68,0.00,,,0.00,Rainwise IP-100,2013-04-30 20:56:00,
2013-04-30 14:01:00,32.8,24.0,25.80,NNW,337,6.8,9.6,66,0.00,,,0.00,Rainwise IP-100,2013-04-30 21:01:00,
2013-04-30 14:06:00,33.7,23.0,25.81,North,360,6.5,14.5,62,0.00,,,0.00,Rainwise IP-100,2013-04-30 21:06:00,
2013-04-30 14:11:00,33.9,23.0,25.81,NNW,337,8.9,17.3,60,0.00,,,0.00,Rainwise IP-100,2013-04-30 21:11:00,
2013-04-30 14:16:00,33.5,23.0,25.81,NNW,337,8.9,14.2,61,0.00,,,0.00,Rainwise IP-100,2013-04-30 21:16:00,
2013-04-30 14:21:00,33.5,23.0,25.82,NNW,337,8.9,14.9,62,0.00,,,0.00,Rainwise IP-100,2013-04-30 21:21:00,
2013-04-30 14:26:00,33.7,23.0,25.81,NNW,337,4.0,14.9,62,0.00,,,0.00,Rainwise IP-100,2013-04-30 21:26:00,
2013-04-30 14:31:00,33.8,23.0,25.82,NW,315,11.9,14.9,60,0.00,,,0.00,Rainwise IP-100,2013-04-30 21:31:00,
2013-04-30 14:36:00,34.1,23.0,25.82,NNW,337,3.7,11.9,59,0.00,,,0.00,Rainwise IP-100,2013-04-30 21:36:00,
2013-04-30 14:41:00,34.8,21.0,25.82,NNW,337,7.5,12.6,56,0.00,,,0.00,Rainwise IP-100,2013-04-30 21:41:00,
2013-04-30 14:46:00,35.3,21.0,25.82,NNW,337,6.1,13.3,54,0.00,,,0.00,Rainwise IP-100,2013-04-30 21:46:00,
2013-04-30 14:51:00,35.2,21.0,25.82,North,360,8.4,13.5,55,0.00,,,0.00,Rainwise IP-100,2013-04-30 21:51:00,
2013-04-30 14:56:00,34.9,21.0,25.82,NNW,337,8.4,15.9,57,0.00,,,0.00,Rainwise IP-100,2013-04-30 21:56:00,
2013-04-30 15:01:00,34.5,23.0,25.82,NNW,337,12.1,14.5,58,0.00,,,0.00,Rainwise IP-100,2013-04-30 22:01:00,
2013-04-30 15:06:00,34.2,21.0,25.83,NNW,337,4.9,12.4,57,0.00,,,0.00,Rainwise IP-100,2013-04-30 22:06:00,
2013-04-30 15:11:00,34.1,23.0,25.82,NNW,337,11.4,12.4,58,0.00,,,0.00,Rainwise IP-100,2013-04-30 22:11:00,
2013-04-30 15:16:00,34.2,23.0,25.83,NNE,22,5.1,11.4,59,0.00,,,0.00,Rainwise IP-100,2013-04-30 22:16:00,
2013-04-30 15:21:00,34.2,23.0,25.83,NNW,337,4.7,13.8,59,0.00,,,0.00,Rainwise IP-100,2013-04-30 22:21:00,
2013-04-30 15:26:00,34.1,23.0,25.83,NNW,337,7.0,16.8,60,0.00,,,0.00,Rainwise IP-100,2013-04-30 22:26:00,
2013-04-30 15:31:00,34.1,23.0,25.83,NNW,337,11.4,15.6,61,0.00,,,0.00,Rainwise IP-100,2013-04-30 22:31:00,
2013-04-30 15:36:00,34.3,23.0,25.83,NNW,337,5.8,14.7,62,0.00,,,0.00,Rainwise IP-100,2013-04-30 22:36:00,
2013-04-30 15:41:00,34.3,23.0,25.83,NNW,337,8.6,15.2,62,0.00,,,0.00,Rainwise IP-100,2013-04-30 22:41:00,
2013-04-30 15:46:00,34.1,23.0,25.83,NNW,337,7.2,15.4,62,0.00,,,0.00,Rainwise IP-100,2013-04-30 22:46:00,
2013-04-30 15:51:00,34.4,24.0,25.83,North,360,7.5,15.4,64,0.00,,,0.00,Rainwise IP-100,2013-04-30 22:51:00,
2013-04-30 15:56:00,34.8,24.0,25.84,NNW,337,7.9,13.8,65,0.00,,,0.00,Rainwise IP-100,2013-04-30 22:56:00,
2013-04-30 16:01:00,34.9,24.0,25.84,NNW,337,9.8,11.9,64,0.00,,,0.00,Rainwise IP-100,2013-04-30 23:01:00,
2013-04-30 16:06:00,34.6,24.0,25.84,NNW,337,5.8,11.7,63,0.00,,,0.00,Rainwise IP-100,2013-04-30 23:06:00,
2013-04-30 16:11:00,34.5,24.0,25.84,NNE,22,8.6,14.2,63,0.00,,,0.00,Rainwise IP-100,2013-04-30 23:11:00,
2013-04-30 16:16:00,34.8,24.0,25.85,NNE,22,5.8,13.1,63,0.00,,,0.00,Rainwise IP-100,2013-04-30 23:16:00,
2013-04-30 16:21:00,34.8,24.0,25.84,NNE,22,4.0,12.8,63,0.00,,,0.00,Rainwise IP-100,2013-04-30 23:21:00,
2013-04-30 16:26:00,34.7,24.0,25.84,North,360,7.2,11.2,64,0.00,,,0.00,Rainwise IP-100,2013-04-30 23:26:00,
2013-04-30 16:31:00,34.9,24.0,25.84,NW,315,5.4,11.0,63,0.00,,,0.00,Rainwise IP-100,2013-04-30 23:31:00,
2013-04-30 16:36:00,35.1,23.0,25.84,NW,315,6.3,12.1,62,0.00,,,0.00,Rainwise IP-100,2013-04-30 23:36:00,
2013-04-30 16:41:00,35.3,23.0,25.85,NNW,337,9.6,11.7,62,0.00,,,0.00,Rainwise IP-100,2013-04-30 23:41:00,
2013-04-30 16:46:00,35.3,23.0,25.85,North,360,8.2,10.5,60,0.00,,,0.00,Rainwise IP-100,2013-04-30 23:46:00,
2013-04-30 16:51:00,35.5,24.0,25.84,NNW,337,12.4,12.8,60,0.00,,,0.00,Rainwise IP-100,2013-04-30 23:51:00,
2013-04-30 16:56:00,35.8,23.0,25.85,NNW,337,3.5,12.8,59,0.00,,,0.00,Rainwise IP-100,2013-04-30 23:56:00,
2013-04-30 17:01:00,35.4,23.0,25.85,NNE,22,5.4,12.6,59,0.00,,,0.00,Rainwise IP-100,2013-05-01 00:01:00,
2013-04-30 17:06:00,34.8,23.0,25.84,NNW,337,7.2,10.5,60,0.00,,,0.00,Rainwise IP-100,2013-05-01 00:06:00,
2013-04-30 17:11:00,34.4,23.0,25.84,NNW,337,5.4,11.7,60,0.00,,,0.00,Rainwise IP-100,2013-05-01 00:11:00,
2013-04-30 17:16:00,34.6,23.0,25.85,North,360,5.1,11.2,59,0.00,,,0.00,Rainwise IP-100,2013-05-01 00:16:00,
2013-04-30 17:21:00,34.8,23.0,25.85,NNW,337,7.9,12.6,59,0.00,,,0.00,Rainwise IP-100,2013-05-01 00:21:00,
2013-04-30 17:26:00,34.6,23.0,25.85,NW,315,7.0,12.8,59,0.00,,,0.00,Rainwise IP-100,2013-05-01 00:26:00,
2013-04-30 17:31:00,34.2,23.0,25.86,NNE,22,4.4,11.7,59,0.00,,,0.00,Rainwise IP-100,2013-05-01 00:31:00,
2013-04-30 17:36:00,33.8,23.0,25.85,North,360,7.0,11.9,61,0.00,,,0.00,Rainwise IP-100,2013-05-01 00:36:00,
2013-04-30 17:41:00,33.6,24.0,25.86,North,360,4.0,12.1,63,0.00,,,0.00,Rainwise IP-100,2013-05-01 00:41:00,
2013-04-30 17:46:00,33.5,24.0,25.86,NNE,22,3.5,14.0,63,0.00,,,0.00,Rainwise IP-100,2013-05-01 00:46:00,
2013-04-30 17:51:00,33.4,23.0,25.86,NNE,22,6.1,11.7,63,0.00,,,0.00,Rainwise IP-100,2013-05-01 00:51:00,
2013-04-30 17:56:00,33.4,23.0,25.86,North,360,3.3,14.5,63,0.00,,,0.00,Rainwise IP-100,2013-05-01 00:56:00,
2013-04-30 18:01:00,33.3,23.0,25.86,NW,315,6.8,12.4,63,0.00,,,0.00,Rainwise IP-100,2013-05-01 01:01:00,
2013-04-30 18:06:00,33.0,23.0,25.86,NNW,337,6.8,8.9,63,0.00,,,0.00,Rainwise IP-100,2013-05-01 01:06:00,
2013-04-30 18:11:00,32.9,23.0,25.86,NNW,337,7.5,10.0,64,0.00,,,0.00,Rainwise IP-100,2013-05-01 01:11:00,
2013-04-30 18:16:00,32.8,23.0,25.87,North,360,8.4,11.4,64,0.00,,,0.00,Rainwise IP-100,2013-05-01 01:16:00,
2013-04-30 18:21:00,32.6,23.0,25.86,NNW,337,6.3,11.2,64,0.00,,,0.00,Rainwise IP-100,2013-05-01 01:21:00,
2013-04-30 18:26:00,32.5,23.0,25.87,NNE,22,3.0,10.7,65,0.00,,,0.00,Rainwise IP-100,2013-05-01 01:26:00,
2013-04-30 18:31:00,32.3,23.0,25.87,NNW,337,6.8,7.9,66,0.00,,,0.00,Rainwise IP-100,2013-05-01 01:31:00,
2013-04-30 18:36:00,32.1,23.0,25.86,NNE,22,6.3,10.3,66,0.00,,,0.00,Rainwise IP-100,2013-05-01 01:36:00,
2013-04-30 18:41:00,31.9,23.0,25.87,North,360,4.0,9.8,67,0.00,,,0.00,Rainwise IP-100,2013-05-01 01:41:00,
2013-04-30 18:46:00,31.7,23.0,25.86,NNE,22,2.6,9.1,67,0.00,,,0.00,Rainwise IP-100,2013-05-01 01:46:00,
2013-04-30 18:51:00,31.6,23.0,25.86,SW,225,0.0,8.2,68,0.00,,,0.00,Rainwise IP-100,2013-05-01 01:51:00,
2013-04-30 18:56:00,31.5,23.0,25.86,NNW,337,4.4,5.6,68,0.00,,,0.00,Rainwise IP-100,2013-05-01 01:56:00,
2013-04-30 19:01:00,31.5,23.0,25.86,NE,45,4.0,7.7,67,0.00,,,0.00,Rainwise IP-100,2013-05-01 02:01:00,
2013-04-30 19:06:00,31.4,21.0,25.87,NNE,22,2.3,7.9,67,0.00,,,0.00,Rainwise IP-100,2013-05-01 02:06:00,
2013-04-30 19:11:00,31.2,21.0,25.87,NNW,337,2.6,7.2,67,0.00,,,0.00,Rainwise IP-100,2013-05-01 02:11:00,
2013-04-30 19:16:00,31.1,23.0,25.87,NNW,337,0.0,5.6,68,0.00,,,0.00,Rainwise IP-100,2013-05-01 02:16:00,
2013-04-30 19:21:00,31.0,23.0,25.87,NNE,22,0.0,4.9,68,0.00,,,0.00,Rainwise IP-100,2013-05-01 02:21:00,
2013-04-30 19:26:00,30.9,23.0,25.88,ENE,67,0.0,3.7,68,0.00,,,0.00,Rainwise IP-100,2013-05-01 02:26:00,
2013-04-30 19:31:00,30.7,23.0,25.87,NNW,337,1.4,5.4,69,0.00,,,0.00,Rainwise IP-100,2013-05-01 02:31:00,
2013-04-30 19:36:00,30.6,23.0,25.87,North,360,3.5,7.7,70,0.00,,,0.00,Rainwise IP-100,2013-05-01 02:36:00,
2013-04-30 19:41:00,30.4,23.0,25.87,ENE,67,1.6,6.5,71,0.00,,,0.00,Rainwise IP-100,2013-05-01 02:41:00,
2013-04-30 19:46:00,30.4,23.0,25.87,SSE,157,0.0,5.1,71,0.00,,,0.00,Rainwise IP-100,2013-05-01 02:46:00,
2013-04-30 19:51:00,30.3,23.0,25.87,NNE,22,1.9,5.1,71,0.00,,,0.00,Rainwise IP-100,2013-05-01 02:51:00,
2013-04-30 19:56:00,30.2,23.0,25.87,ENE,67,2.1,5.1,71,0.00,,,0.00,Rainwise IP-100,2013-05-01 02:56:00,
2013-04-30 20:01:00,30.1,23.0,25.88,NNE,22,0.0,4.2,72,0.00,,,0.00,Rainwise IP-100,2013-05-01 03:01:00,
2013-04-30 20:06:00,29.9,23.0,25.88,ENE,67,2.1,4.2,72,0.00,,,0.00,Rainwise IP-100,2013-05-01 03:06:00,
2013-04-30 20:11:00,29.6,23.0,25.88,North,360,0.0,3.0,73,0.00,,,0.00,Rainwise IP-100,2013-05-01 03:11:00,
2013-04-30 20:16:00,29.4,23.0,25.88,East,90,0.0,2.3,74,0.00,,,0.00,Rainwise IP-100,2013-05-01 03:16:00,
2013-04-30 20:21:00,29.3,23.0,25.88,ENE,67,0.0,1.2,75,0.00,,,0.00,Rainwise IP-100,2013-05-01 03:21:00,
2013-04-30 20:26:00,29.2,23.0,25.88,ENE,67,0.0,0.0,75,0.00,,,0.00,Rainwise IP-100,2013-05-01 03:26:00,
2013-04-30 20:31:00,28.9,23.0,25.88,ENE,67,0.0,0.0,76,0.00,,,0.00,Rainwise IP-100,2013-05-01 03:31:00,
2013-04-30 20:36:00,28.5,23.0,25.89,ENE,67,0.0,0.0,78,0.00,,,0.00,Rainwise IP-100,2013-05-01 03:36:00,
2013-04-30 20:41:00,28.1,23.0,25.89,ENE,67,0.0,0.0,79,0.00,,,0.00,Rainwise IP-100,2013-05-01 03:41:00,
2013-04-30 20:45:00,28.1,23.0,25.89,ESE,112,0.0,2.8,79,0.00,,,0.00,Rainwise IP-100,2013-05-01 03:45:00,
2013-04-30 20:48:00,28.1,23.0,25.89,NE,45,0.0,2.8,80,0.00,,,0.00,Rainwise IP-100,2013-05-01 03:48:00,
2013-04-30 20:53:00,28.1,23.0,25.89,NNE,22,0.0,1.6,80,0.00,,,0.00,Rainwise IP-100,2013-05-01 03:53:00,
2013-04-30 20:58:00,28.1,23.0,25.89,NNE,22,0.0,0.0,80,0.00,,,0.00,Rainwise IP-100,2013-05-01 03:58:00,
2013-04-30 21:01:00,28.0,23.0,25.89,NNE,22,0.0,1.4,81,0.00,,,0.00,Rainwise IP-100,2013-05-01 04:01:00,
2013-04-30 21:06:00,28.0,23.0,25.89,NNE,22,0.0,0.0,81,0.00,,,0.00,Rainwise IP-100,2013-05-01 04:06:00,
2013-04-30 21:11:00,27.8,23.0,25.90,NNE,22,0.0,0.0,81,0.00,,,0.00,Rainwise IP-100,2013-05-01 04:11:00,
2013-04-30 21:16:00,27.7,23.0,25.89,NNE,22,0.0,0.0,81,0.00,,,0.00,Rainwise IP-100,2013-05-01 04:16:00,
2013-04-30 21:21:00,27.6,23.0,25.90,NNE,22,0.0,0.0,82,0.00,,,0.00,Rainwise IP-100,2013-05-01 04:21:00,
2013-04-30 21:26:00,27.6,23.0,25.89,NNE,22,0.0,0.0,82,0.00,,,0.00,Rainwise IP-100,2013-05-01 04:26:00,
2013-04-30 21:31:00,27.5,23.0,25.90,NNE,22,0.0,0.0,82,0.00,,,0.00,Rainwise IP-100,2013-05-01 04:31:00,
2013-04-30 21:36:00,27.3,23.0,25.90,NNE,22,0.0,0.0,83,0.00,,,0.00,Rainwise IP-100,2013-05-01 04:36:00,
2013-04-30 21:41:00,27.2,23.0,25.90,NNE,22,0.0,0.0,83,0.00,,,0.00,Rainwise IP-100,2013-05-01 04:41:00,
2013-04-30 21:46:00,27.3,23.0,25.90,NNE,22,0.0,0.0,83,0.00,,,0.00,Rainwise IP-100,2013-05-01 04:46:00,
2013-04-30 21:51:00,27.2,23.0,25.90,NNE,22,0.0,0.0,83,0.00,,,0.00,Rainwise IP-100,2013-05-01 04:51:00,
2013-04-30 21:56:00,27.1,24.0,25.91,NNE,22,0.0,0.0,84,0.00,,,0.00,Rainwise IP-100,2013-05-01 04:56:00,
2013-04-30 22:01:00,27.0,24.0,25.91,NNE,22,0.0,0.0,84,0.00,,,0.00,Rainwise IP-100,2013-05-01 05:01:00,
2013-04-30 22:06:00,26.9,24.0,25.91,NNE,22,0.0,0.0,85,0.00,,,0.00,Rainwise IP-100,2013-05-01 05:06:00,
2013-04-30 22:11:00,26.8,24.0,25.91,SSE,157,0.0,1.6,85,0.00,,,0.00,Rainwise IP-100,2013-05-01 05:11:00,
2013-04-30 22:16:00,26.8,24.0,25.91,SSE,157,0.0,1.2,84,0.00,,,0.00,Rainwise IP-100,2013-05-01 05:16:00,
2013-04-30 22:21:00,26.7,24.0,25.91,SSE,157,0.0,0.0,84,0.00,,,0.00,Rainwise IP-100,2013-05-01 05:21:00,
2013-04-30 22:26:00,26.6,24.0,25.91,SSE,157,0.0,0.0,85,0.00,,,0.00,Rainwise IP-100,2013-05-01 05:26:00,
2013-04-30 22:31:00,26.5,24.0,25.91,SSE,157,0.0,1.4,85,0.00,,,0.00,Rainwise IP-100,2013-05-01 05:31:00,
2013-04-30 22:36:00,26.5,24.0,25.91,SSE,157,0.0,1.4,86,0.00,,,0.00,Rainwise IP-100,2013-05-01 05:36:00,
2013-04-30 22:41:00,26.4,23.0,25.91,SSE,157,0.0,0.0,85,0.00,,,0.00,Rainwise IP-100,2013-05-01 05:41:00,
2013-04-30 22:46:00,26.3,23.0,25.90,SSE,157,0.0,1.6,86,0.00,,,0.00,Rainwise IP-100,2013-05-01 05:46:00,
2013-04-30 22:51:00,26.3,23.0,25.90,SSE,157,0.0,1.6,86,0.00,,,0.00,Rainwise IP-100,2013-05-01 05:51:00,
2013-04-30 22:56:00,26.3,23.0,25.91,SSE,157,0.0,0.0,86,0.00,,,0.00,Rainwise IP-100,2013-05-01 05:56:00,
2013-04-30 23:01:00,26.2,23.0,25.91,SSE,157,0.0,1.4,86,0.00,,,0.00,Rainwise IP-100,2013-05-01 06:01:00,
2013-04-30 23:06:00,26.1,23.0,25.91,SSE,157,0.0,0.0,86,0.00,,,0.00,Rainwise IP-100,2013-05-01 06:06:00,
2013-04-30 23:11:00,25.9,23.0,25.91,SSE,157,0.0,0.0,86,0.00,,,0.00,Rainwise IP-100,2013-05-01 06:11:00,
2013-04-30 23:16:00,25.7,23.0,25.91,SSE,157,0.0,0.0,86,0.00,,,0.00,Rainwise IP-100,2013-05-01 06:16:00,
2013-04-30 23:21:00,25.6,23.0,25.91,SSE,157,0.0,0.0,87,0.00,,,0.00,Rainwise IP-100,2013-05-01 06:21:00,
2013-04-30 23:22:00,25.6,23.0,25.91,SSE,157,0.0,0.0,87,0.00,,,0.00,Rainwise IP-100,2013-05-01 06:22:00,
2013-04-30 23:27:00,25.6,23.0,25.91,SSE,157,1.4,0.0,87,0.00,,,0.00,Rainwise IP-100,2013-05-01 06:27:00,
2013-04-30 23:32:00,25.5,23.0,25.91,SSE,157,0.0,1.6,86,0.00,,,0.00,Rainwise IP-100,2013-05-01 06:32:00,
2013-04-30 23:37:00,25.5,23.0,25.92,SSE,157,0.0,1.2,86,0.00,,,0.00,Rainwise IP-100,2013-05-01 06:37:00,
2013-04-30 23:42:00,25.5,23.0,25.92,SSE,157,0.0,1.4,87,0.00,,,0.00,Rainwise IP-100,2013-05-01 06:42:00,
2013-04-30 23:47:00,25.3,23.0,25.92,SSW,202,0.0,3.5,87,0.00,,,0.00,Rainwise IP-100,2013-05-01 06:47:00,
2013-04-30 23:52:00,25.2,23.0,25.92,SSW,202,0.0,0.0,87,0.00,,,0.00,Rainwise IP-100,2013-05-01 06:52:00,
2013-04-30 23:57:00,25.3,23.0,25.92,SSW,202,0.0,0.0,87,0.00,,,0.00,Rainwise IP-100,2013-05-01 06:57:00,